"Sample Date","Sample Time","Sensor Name","Sample Value","Units","Flow Rate","Sample Interval","Sample Volume","Laser Status","Number Channels","Micron Size 0","Counts/Channel 0","Micron Size 1","Counts/Channel 1","Micron Size 2","Counts/Channel 2","Micron Size 3","Counts/Channel 3","Micron Size 4","Counts/Channel 4","Micron Size 5","Counts/Channel 5","Micron Size 6","Counts/Channel 6","Micron Size 7","Counts/Channel 7","Micron Size 8","Counts/Channel 8","Micron Size 9","Counts/Channel 9","Micron Size 10","Counts/Channel 10","Micron Size 11","Counts/Channel 11","Micron Size 12","Counts/Channel 12","Micron Size 13","Counts/Channel 13","Micron Size 14","Counts/Channel 14","Micron Size 15","Counts/Channel 15","Micron Size 16","Counts/Channel 16","Micron Size 17","Counts/Channel 17","Micron Size 18","Counts/Channel 18","Micron Size 19","Counts/Channel 19","Micron Size 20","Counts/Channel 20","Micron Size 21","Counts/Channel 21","Micron Size 22","Counts/Channel 22","Micron Size 23","Counts/Channel 23","Micron Size 24","Counts/Channel 24","Micron Size 25","Counts/Channel 25","Micron Size 26","Counts/Channel 26","Micron Size 27","Counts/Channel 27","Micron Size 28","Counts/Channel 28","Micron Size 29","Counts/Channel 29","Micron Size 30","Counts/Channel 30","Micron Size 31","Counts/Channel 31"
"07/09/06","16:00:03","AMMA06",30541.000,"cc",28315.600,6.00,2831.560,1,6,0.100,17915.000,0.200,11229.000,0.300,1182.000,0.500,140.000,1.000,75.000,5.000,0
"07/09/06","16:00:09","AMMA06",30453.000,"cc",28289.215,6.00,2828.922,1,6,0.100,17834.000,0.200,11187.000,0.300,1212.000,0.500,136.000,1.000,84.000,5.000,0
"07/09/06","16:00:15","AMMA06",30315.000,"cc",28347.811,6.00,2834.781,1,6,0.100,17647.000,0.200,11294.000,0.300,1165.000,0.500,150.000,1.000,59.000,5.000,0
"07/09/06","16:00:21","AMMA06",30416.000,"cc",28291.443,6.00,2829.145,1,6,0.100,17682.000,0.200,11394.000,0.300,1117.000,0.500,137.000,1.000,86.000,5.000,0
"07/09/06","16:00:27","AMMA06",30035.000,"cc",28325.838,6.00,2832.584,1,6,0.100,17603.000,0.200,11075.000,0.300,1159.000,0.500,123.000,1.000,75.000,5.000,0
"07/09/06","16:00:33","AMMA06",30663.000,"cc",28344.615,6.00,2834.462,1,6,0.100,17717.000,0.200,11484.000,0.300,1247.000,0.500,129.000,1.000,85.000,5.000,1.000
"07/09/06","16:00:39","AMMA06",30299.000,"cc",28287.594,6.00,2828.760,1,6,0.100,17546.000,0.200,11365.000,0.300,1172.000,0.500,136.000,1.000,80.000,5.000,0
"07/09/06","16:00:45","AMMA06",30223.000,"cc",28369.715,6.00,2836.972,1,6,0.100,17622.000,0.200,11263.000,0.300,1127.000,0.500,133.000,1.000,78.000,5.000,0
"07/09/06","16:00:51","AMMA06",29860.000,"cc",28295.904,6.00,2829.591,1,6,0.100,17458.000,0.200,11091.000,0.300,1111.000,0.500,134.000,1.000,66.000,5.000,0
"07/09/06","16:00:57","AMMA06",30421.000,"cc",28256.094,6.00,2825.610,1,6,0.100,17702.000,0.200,11356.000,0.300,1148.000,0.500,123.000,1.000,92.000,5.000,0
"07/09/06","16:01:03","AMMA06",30019.000,"cc",28330.586,6.00,2833.059,1,6,0.100,17510.000,0.200,11099.000,0.300,1187.000,0.500,134.000,1.000,89.000,5.000,0
"07/09/06","16:01:09","AMMA06",29930.000,"cc",28349.559,6.00,2834.956,1,6,0.100,17441.000,0.200,11112.000,0.300,1187.000,0.500,120.000,1.000,70.000,5.000,0
"07/09/06","16:01:15","AMMA06",30207.000,"cc",28305.309,6.00,2830.531,1,6,0.100,17619.000,0.200,11091.000,0.300,1230.000,0.500,177.000,1.000,90.000,5.000,0
"07/09/06","16:01:21","AMMA06",29973.000,"cc",28362.850,6.00,2836.285,1,6,0.100,17437.000,0.200,11151.000,0.300,1174.000,0.500,130.000,1.000,81.000,5.000,0
"07/09/06","16:01:27","AMMA06",30034.000,"cc",28272.232,6.00,2827.223,1,6,0.100,17439.000,0.200,11234.000,0.300,1148.000,0.500,128.000,1.000,85.000,5.000,0
"07/09/06","16:01:33","AMMA06",30154.000,"cc",28339.082,6.00,2833.908,1,6,0.100,17422.000,0.200,11388.000,0.300,1140.000,0.500,120.000,1.000,84.000,5.000,0
"07/09/06","16:01:39","AMMA06",30169.000,"cc",28321.441,6.00,2832.144,1,6,0.100,17363.000,0.200,11433.000,0.300,1180.000,0.500,121.000,1.000,72.000,5.000,0
"07/09/06","16:01:45","AMMA06",30139.000,"cc",28341.412,6.00,2834.141,1,6,0.100,17603.000,0.200,11188.000,0.300,1172.000,0.500,118.000,1.000,58.000,5.000,0
"07/09/06","16:01:51","AMMA06",30269.000,"cc",28322.709,6.00,2832.271,1,6,0.100,17559.000,0.200,11338.000,0.300,1167.000,0.500,122.000,1.000,83.000,5.000,0
"07/09/06","16:01:57","AMMA06",30103.000,"cc",28261.020,6.00,2826.102,1,6,0.100,17540.000,0.200,11182.000,0.300,1158.000,0.500,139.000,1.000,84.000,5.000,0
"07/09/06","16:02:03","AMMA06",30243.000,"cc",28332.535,6.00,2833.254,1,6,0.100,17419.000,0.200,11355.000,0.300,1224.000,0.500,146.000,1.000,99.000,5.000,0
"07/09/06","16:02:09","AMMA06",30474.000,"cc",28313.227,6.00,2831.323,1,6,0.100,17740.000,0.200,11159.000,0.300,1277.000,0.500,185.000,1.000,113.000,5.000,0
"07/09/06","16:02:15","AMMA06",30796.000,"cc",28304.322,6.00,2830.432,1,6,0.100,17840.000,0.200,11323.000,0.300,1305.000,0.500,217.000,1.000,111.000,5.000,0
"07/09/06","16:02:21","AMMA06",30621.000,"cc",28320.957,6.00,2832.096,1,6,0.100,17477.000,0.200,11696.000,0.300,1206.000,0.500,158.000,1.000,84.000,5.000,0
"07/09/06","16:02:27","AMMA06",30170.000,"cc",28343.023,6.00,2834.303,1,6,0.100,17268.000,0.200,11485.000,0.300,1184.000,0.500,157.000,1.000,76.000,5.000,0
"07/09/06","16:02:33","AMMA06",30028.000,"cc",28319.996,6.00,2832.000,1,6,0.100,17166.000,0.200,11443.000,0.300,1185.000,0.500,149.000,1.000,85.000,5.000,0
"07/09/06","16:02:39","AMMA06",30461.000,"cc",28286.227,6.00,2828.623,1,6,0.100,17475.000,0.200,11527.000,0.300,1219.000,0.500,148.000,1.000,92.000,5.000,0
"07/09/06","16:02:45","AMMA06",30173.000,"cc",28268.611,6.00,2826.861,1,6,0.100,17362.000,0.200,11437.000,0.300,1166.000,0.500,120.000,1.000,88.000,5.000,0
"07/09/06","16:02:51","AMMA06",30224.000,"cc",28305.623,6.00,2830.563,1,6,0.100,17464.000,0.200,11379.000,0.300,1175.000,0.500,126.000,1.000,80.000,5.000,0
"07/09/06","16:02:57","AMMA06",29940.000,"cc",28307.777,6.00,2830.778,1,6,0.100,17202.000,0.200,11407.000,0.300,1128.000,0.500,128.000,1.000,75.000,5.000,0
"07/09/06","16:03:03","AMMA06",29958.000,"cc",28367.803,6.00,2836.781,1,6,0.100,17334.000,0.200,11241.000,0.300,1194.000,0.500,121.000,1.000,68.000,5.000,0
"07/09/06","16:03:09","AMMA06",30445.000,"cc",28367.447,6.00,2836.745,1,6,0.100,17569.000,0.200,11448.000,0.300,1230.000,0.500,128.000,1.000,70.000,5.000,0
"07/09/06","16:03:15","AMMA06",30378.000,"cc",28315.006,6.00,2831.501,1,6,0.100,17657.000,0.200,11372.000,0.300,1152.000,0.500,117.000,1.000,80.000,5.000,0
"07/09/06","16:03:21","AMMA06",29636.000,"cc",28304.578,6.00,2830.458,1,6,0.100,17364.000,0.200,10927.000,0.300,1148.000,0.500,117.000,1.000,80.000,5.000,0
"07/09/06","16:03:27","AMMA06",29992.000,"cc",28314.223,6.00,2831.422,1,6,0.100,17443.000,0.200,11209.000,0.300,1161.000,0.500,107.000,1.000,72.000,5.000,0
"07/09/06","16:03:33","AMMA06",29470.000,"cc",28318.432,6.00,2831.843,1,6,0.100,17157.000,0.200,10908.000,0.300,1199.000,0.500,129.000,1.000,77.000,5.000,0
"07/09/06","16:03:39","AMMA06",29720.000,"cc",28320.848,6.00,2832.085,1,6,0.100,17122.000,0.200,11222.000,0.300,1156.000,0.500,143.000,1.000,77.000,5.000,0
"07/09/06","16:03:45","AMMA06",30204.000,"cc",28279.783,6.00,2827.979,1,6,0.100,17455.000,0.200,11287.000,0.300,1231.000,0.500,152.000,1.000,79.000,5.000,0
"07/09/06","16:03:51","AMMA06",30097.000,"cc",28330.846,6.00,2833.085,1,6,0.100,17582.000,0.200,11107.000,0.300,1189.000,0.500,140.000,1.000,79.000,5.000,0
"07/09/06","16:03:57","AMMA06",29751.000,"cc",28285.117,6.00,2828.512,1,6,0.100,17524.000,0.200,10832.000,0.300,1192.000,0.500,128.000,1.000,75.000,5.000,0
"07/09/06","16:04:03","AMMA06",30076.000,"cc",28289.551,6.00,2828.955,1,6,0.100,17742.000,0.200,10905.000,0.300,1190.000,0.500,143.000,1.000,96.000,5.000,0
"07/09/06","16:04:09","AMMA06",29858.000,"cc",28356.078,6.00,2835.608,1,6,0.100,17458.000,0.200,11008.000,0.300,1165.000,0.500,160.000,1.000,67.000,5.000,0
"07/09/06","16:04:15","AMMA06",29636.000,"cc",28286.768,6.00,2828.677,1,6,0.100,17434.000,0.200,10859.000,0.300,1119.000,0.500,147.000,1.000,77.000,5.000,0
"07/09/06","16:04:21","AMMA06",29777.000,"cc",28326.815,6.00,2832.682,1,6,0.100,17467.000,0.200,10988.000,0.300,1128.000,0.500,118.000,1.000,76.000,5.000,0
"07/09/06","16:04:27","AMMA06",29567.000,"cc",28342.045,6.00,2834.205,1,6,0.100,17406.000,0.200,10859.000,0.300,1119.000,0.500,115.000,1.000,68.000,5.000,0
"07/09/06","16:04:33","AMMA06",29784.000,"cc",28335.594,6.00,2833.560,1,6,0.100,17494.000,0.200,11009.000,0.300,1115.000,0.500,117.000,1.000,49.000,5.000,0
"07/09/06","16:04:39","AMMA06",29747.000,"cc",28308.545,6.00,2830.855,1,6,0.100,17494.000,0.200,10923.000,0.300,1155.000,0.500,108.000,1.000,67.000,5.000,0
"07/09/06","16:04:45","AMMA06",29652.000,"cc",28278.525,6.00,2827.853,1,6,0.100,17445.000,0.200,10843.000,0.300,1156.000,0.500,138.000,1.000,70.000,5.000,0
"07/09/06","16:04:51","AMMA06",29703.000,"cc",28280.252,6.00,2828.025,1,6,0.100,17466.000,0.200,10892.000,0.300,1134.000,0.500,123.000,1.000,88.000,5.000,0
"07/09/06","16:04:57","AMMA06",29691.000,"cc",28371.990,6.00,2837.199,1,6,0.100,17359.000,0.200,10983.000,0.300,1138.000,0.500,144.000,1.000,67.000,5.000,0
"07/09/06","16:05:03","AMMA06",29462.000,"cc",28346.871,6.00,2834.687,1,6,0.100,17232.000,0.200,10970.000,0.300,1064.000,0.500,129.000,1.000,67.000,5.000,0
"07/09/06","16:05:09","AMMA06",29536.000,"cc",28303.178,6.00,2830.318,1,6,0.100,17250.000,0.200,10905.000,0.300,1183.000,0.500,127.000,1.000,71.000,5.000,0
"07/09/06","16:05:15","AMMA06",29658.000,"cc",28344.334,6.00,2834.434,1,6,0.100,17396.000,0.200,10875.000,0.300,1160.000,0.500,143.000,1.000,84.000,5.000,0
"07/09/06","16:05:21","AMMA06",29734.000,"cc",28289.754,6.00,2828.976,1,6,0.100,17522.000,0.200,10934.000,0.300,1076.000,0.500,130.000,1.000,72.000,5.000,0
"07/09/06","16:05:27","AMMA06",29687.000,"cc",28299.535,6.00,2829.954,1,6,0.100,17611.000,0.200,10781.000,0.300,1093.000,0.500,141.000,1.000,61.000,5.000,0
"07/09/06","16:05:33","AMMA06",29556.000,"cc",28305.508,6.00,2830.551,1,6,0.100,17548.000,0.200,10688.000,0.300,1117.000,0.500,125.000,1.000,78.000,5.000,0
"07/09/06","16:05:39","AMMA06",29412.000,"cc",28337.029,6.00,2833.703,1,6,0.100,17550.000,0.200,10601.000,0.300,1074.000,0.500,119.000,1.000,68.000,5.000,0
"07/09/06","16:05:45","AMMA06",29354.000,"cc",28339.619,6.00,2833.962,1,6,0.100,17414.000,0.200,10583.000,0.300,1153.000,0.500,122.000,1.000,82.000,5.000,0
"07/09/06","16:05:51","AMMA06",29485.000,"cc",28294.705,6.00,2829.471,1,6,0.100,17539.000,0.200,10677.000,0.300,1061.000,0.500,135.000,1.000,73.000,5.000,0
"07/09/06","16:05:57","AMMA06",29742.000,"cc",28330.406,6.00,2833.041,1,6,0.100,17507.000,0.200,10874.000,0.300,1129.000,0.500,159.000,1.000,73.000,5.000,0
"07/09/06","16:06:03","AMMA06",29522.000,"cc",28301.748,6.00,2830.175,1,6,0.100,17472.000,0.200,10768.000,0.300,1082.000,0.500,119.000,1.000,81.000,5.000,0
"07/09/06","16:06:09","AMMA06",29626.000,"cc",28298.328,6.00,2829.833,1,6,0.100,17525.000,0.200,10780.000,0.300,1114.000,0.500,136.000,1.000,71.000,5.000,0
"07/09/06","16:06:15","AMMA06",29674.000,"cc",28317.711,6.00,2831.771,1,6,0.100,17648.000,0.200,10731.000,0.300,1102.000,0.500,132.000,1.000,61.000,5.000,0
"07/09/06","16:06:21","AMMA06",29952.000,"cc",28328.520,6.00,2832.852,1,6,0.100,17790.000,0.200,10870.000,0.300,1096.000,0.500,120.000,1.000,76.000,5.000,0
"07/09/06","16:06:27","AMMA06",29648.000,"cc",28310.262,6.00,2831.026,1,6,0.100,17610.000,0.200,10780.000,0.300,1070.000,0.500,119.000,1.000,69.000,5.000,0
"07/09/06","16:06:33","AMMA06",29668.000,"cc",28311.889,6.00,2831.189,1,6,0.100,17565.000,0.200,10792.000,0.300,1102.000,0.500,134.000,1.000,75.000,5.000,0
"07/09/06","16:06:39","AMMA06",29693.000,"cc",28350.486,6.00,2835.049,1,6,0.100,17745.000,0.200,10660.000,0.300,1081.000,0.500,129.000,1.000,78.000,5.000,0
"07/09/06","16:06:45","AMMA06",30093.000,"cc",28299.307,6.00,2829.931,1,6,0.100,17882.000,0.200,10774.000,0.300,1188.000,0.500,174.000,1.000,75.000,5.000,0
"07/09/06","16:06:51","AMMA06",29457.000,"cc",28291.400,6.00,2829.140,1,6,0.100,17514.000,0.200,10639.000,0.300,1107.000,0.500,125.000,1.000,72.000,5.000,0
"07/09/06","16:06:57","AMMA06",29792.000,"cc",28361.391,6.00,2836.139,1,6,0.100,17611.000,0.200,10897.000,0.300,1096.000,0.500,124.000,1.000,64.000,5.000,0
"07/09/06","16:07:03","AMMA06",29649.000,"cc",28278.822,6.00,2827.882,1,6,0.100,17498.000,0.200,10817.000,0.300,1128.000,0.500,125.000,1.000,81.000,5.000,0
"07/09/06","16:07:09","AMMA06",29685.000,"cc",28291.518,6.00,2829.152,1,6,0.100,17540.000,0.200,10836.000,0.300,1109.000,0.500,134.000,1.000,66.000,5.000,0
"07/09/06","16:07:15","AMMA06",29572.000,"cc",28382.783,6.00,2838.279,1,6,0.100,17478.000,0.200,10782.000,0.300,1105.000,0.500,134.000,1.000,73.000,5.000,0
"07/09/06","16:07:21","AMMA06",29776.000,"cc",28307.078,6.00,2830.708,1,6,0.100,17478.000,0.200,10960.000,0.300,1120.000,0.500,138.000,1.000,80.000,5.000,0
"07/09/06","16:07:27","AMMA06",29901.000,"cc",28286.209,6.00,2828.621,1,6,0.100,17781.000,0.200,10810.000,0.300,1138.000,0.500,112.000,1.000,60.000,5.000,0
"07/09/06","16:07:33","AMMA06",30140.000,"cc",28328.590,6.00,2832.859,1,6,0.100,17868.000,0.200,10946.000,0.300,1148.000,0.500,137.000,1.000,41.000,5.000,0
"07/09/06","16:07:39","AMMA06",29547.000,"cc",28297.869,6.00,2829.787,1,6,0.100,17372.000,0.200,10852.000,0.300,1093.000,0.500,136.000,1.000,94.000,5.000,0
"07/09/06","16:07:45","AMMA06",30147.000,"cc",28328.531,6.00,2832.853,1,6,0.100,17718.000,0.200,11152.000,0.300,1103.000,0.500,121.000,1.000,53.000,5.000,0
"07/09/06","16:07:51","AMMA06",29742.000,"cc",28343.305,6.00,2834.331,1,6,0.100,17727.000,0.200,10650.000,0.300,1179.000,0.500,113.000,1.000,73.000,5.000,0
"07/09/06","16:07:57","AMMA06",29682.000,"cc",28287.490,6.00,2828.749,1,6,0.100,17646.000,0.200,10698.000,0.300,1153.000,0.500,107.000,1.000,78.000,5.000,0
"07/09/06","16:08:03","AMMA06",29737.000,"cc",28340.973,6.00,2834.097,1,6,0.100,17688.000,0.200,10757.000,0.300,1085.000,0.500,123.000,1.000,84.000,5.000,0
"07/09/06","16:08:09","AMMA06",29554.000,"cc",28360.727,6.00,2836.073,1,6,0.100,17653.000,0.200,10617.000,0.300,1098.000,0.500,122.000,1.000,64.000,5.000,0
"07/09/06","16:08:15","AMMA06",29590.000,"cc",28266.533,6.00,2826.654,1,6,0.100,17538.000,0.200,10754.000,0.300,1124.000,0.500,117.000,1.000,57.000,5.000,0
"07/09/06","16:08:21","AMMA06",29431.000,"cc",28326.617,6.00,2832.662,1,6,0.100,17626.000,0.200,10564.000,0.300,1051.000,0.500,111.000,1.000,79.000,5.000,0
"07/09/06","16:08:27","AMMA06",29482.000,"cc",28281.440,6.00,2828.144,1,6,0.100,17525.000,0.200,10704.000,0.300,1084.000,0.500,114.000,1.000,55.000,5.000,0
"07/09/06","16:08:33","AMMA06",29286.000,"cc",28343.533,6.00,2834.354,1,6,0.100,17420.000,0.200,10625.000,0.300,1057.000,0.500,127.000,1.000,57.000,5.000,0
"07/09/06","16:08:39","AMMA06",29298.000,"cc",28346.236,6.00,2834.624,1,6,0.100,17252.000,0.200,10756.000,0.300,1099.000,0.500,121.000,1.000,70.000,5.000,0
"07/09/06","16:08:45","AMMA06",29635.000,"cc",28342.820,6.00,2834.282,1,6,0.100,17587.000,0.200,10788.000,0.300,1077.000,0.500,115.000,1.000,68.000,5.000,0
"07/09/06","16:08:51","AMMA06",29361.000,"cc",28283.705,6.00,2828.371,1,6,0.100,17335.000,0.200,10719.000,0.300,1107.000,0.500,130.000,1.000,70.000,5.000,0
"07/09/06","16:08:57","AMMA06",29250.000,"cc",28367.809,6.00,2836.781,1,6,0.100,17284.000,0.200,10768.000,0.300,1002.000,0.500,124.000,1.000,72.000,5.000,0
"07/09/06","16:09:03","AMMA06",29665.000,"cc",28276.576,6.00,2827.658,1,6,0.100,17585.000,0.200,10679.000,0.300,1147.000,0.500,167.000,1.000,87.000,5.000,0
"07/09/06","16:09:09","AMMA06",29389.000,"cc",28296.051,6.00,2829.605,1,6,0.100,17550.000,0.200,10506.000,0.300,1114.000,0.500,151.000,1.000,68.000,5.000,0
"07/09/06","16:09:15","AMMA06",29388.000,"cc",28300.074,6.00,2830.008,1,6,0.100,17496.000,0.200,10581.000,0.300,1102.000,0.500,134.000,1.000,75.000,5.000,0
"07/09/06","16:09:21","AMMA06",29395.000,"cc",28313.607,6.00,2831.361,1,6,0.100,17465.000,0.200,10630.000,0.300,1100.000,0.500,143.000,1.000,57.000,5.000,0
"07/09/06","16:09:27","AMMA06",29305.000,"cc",28355.088,6.00,2835.509,1,6,0.100,17447.000,0.200,10536.000,0.300,1138.000,0.500,123.000,1.000,61.000,5.000,0
"07/09/06","16:09:33","AMMA06",29474.000,"cc",28310.924,6.00,2831.093,1,6,0.100,17730.000,0.200,10508.000,0.300,1022.000,0.500,147.000,1.000,67.000,5.000,0
"07/09/06","16:09:39","AMMA06",29304.000,"cc",28286.190,6.00,2828.619,1,6,0.100,17365.000,0.200,10620.000,0.300,1102.000,0.500,150.000,1.000,67.000,5.000,0
"07/09/06","16:09:45","AMMA06",29288.000,"cc",28351.303,6.00,2835.130,1,6,0.100,17352.000,0.200,10657.000,0.300,1069.000,0.500,132.000,1.000,78.000,5.000,0
"07/09/06","16:09:51","AMMA06",29557.000,"cc",28341.234,6.00,2834.124,1,6,0.100,17377.000,0.200,10862.000,0.300,1127.000,0.500,114.000,1.000,77.000,5.000,0
"07/09/06","16:09:57","AMMA06",29504.000,"cc",28318.158,6.00,2831.816,1,6,0.100,17560.000,0.200,10640.000,0.300,1113.000,0.500,119.000,1.000,72.000,5.000,0
"07/09/06","16:10:03","AMMA06",29230.000,"cc",28318.397,6.00,2831.840,1,6,0.100,17435.000,0.200,10498.000,0.300,1097.000,0.500,138.000,1.000,62.000,5.000,0
"07/09/06","16:10:09","AMMA06",29496.000,"cc",28337.088,6.00,2833.709,1,6,0.100,17388.000,0.200,10838.000,0.300,1056.000,0.500,123.000,1.000,91.000,5.000,0
"07/09/06","16:10:15","AMMA06",29634.000,"cc",28259.525,6.00,2825.953,1,6,0.100,17510.000,0.200,10800.000,0.300,1145.000,0.500,112.000,1.000,67.000,5.000,0
"07/09/06","16:10:21","AMMA06",29245.000,"cc",28277.506,6.00,2827.751,1,6,0.100,17369.000,0.200,10559.000,0.300,1106.000,0.500,137.000,1.000,74.000,5.000,0
"07/09/06","16:10:27","AMMA06",29320.000,"cc",28390.736,6.00,2839.074,1,6,0.100,17423.000,0.200,10641.000,0.300,1078.000,0.500,112.000,1.000,66.000,5.000,0
"07/09/06","16:10:33","AMMA06",29580.000,"cc",28253.207,6.00,2825.321,1,6,0.100,17526.000,0.200,10731.000,0.300,1099.000,0.500,146.000,1.000,78.000,5.000,0
"07/09/06","16:10:39","AMMA06",29239.000,"cc",28362.109,6.00,2836.211,1,6,0.100,17242.000,0.200,10699.000,0.300,1114.000,0.500,123.000,1.000,61.000,5.000,0
"07/09/06","16:10:45","AMMA06",29282.000,"cc",28333.262,6.00,2833.326,1,6,0.100,17309.000,0.200,10694.000,0.300,1116.000,0.500,116.000,1.000,47.000,5.000,0
"07/09/06","16:10:51","AMMA06",28863.000,"cc",28323.672,6.00,2832.367,1,6,0.100,17141.000,0.200,10377.000,0.300,1140.000,0.500,136.000,1.000,69.000,5.000,0
"07/09/06","16:10:57","AMMA06",29293.000,"cc",28305.662,6.00,2830.566,1,6,0.100,17549.000,0.200,10486.000,0.300,1078.000,0.500,107.000,1.000,73.000,5.000,0
"07/09/06","16:11:03","AMMA06",29260.000,"cc",28310.658,6.00,2831.066,1,6,0.100,17276.000,0.200,10594.000,0.300,1191.000,0.500,114.000,1.000,85.000,5.000,0
"07/09/06","16:11:09","AMMA06",29270.000,"cc",28342.397,6.00,2834.240,1,6,0.100,17443.000,0.200,10552.000,0.300,1077.000,0.500,125.000,1.000,73.000,5.000,0
"07/09/06","16:11:15","AMMA06",29223.000,"cc",28340.914,6.00,2834.092,1,6,0.100,17591.000,0.200,10389.000,0.300,1054.000,0.500,119.000,1.000,70.000,5.000,0
"07/09/06","16:11:21","AMMA06",29311.000,"cc",28316.305,6.00,2831.631,1,6,0.100,17328.000,0.200,10746.000,0.300,1045.000,0.500,109.000,1.000,83.000,5.000,0
"07/09/06","16:11:27","AMMA06",29456.000,"cc",28287.262,6.00,2828.726,1,6,0.100,17391.000,0.200,10718.000,0.300,1166.000,0.500,121.000,1.000,60.000,5.000,0
"07/09/06","16:11:33","AMMA06",29146.000,"cc",28350.555,6.00,2835.056,1,6,0.100,17184.000,0.200,10614.000,0.300,1149.000,0.500,117.000,1.000,82.000,5.000,0
"07/09/06","16:11:39","AMMA06",28916.000,"cc",28314.266,6.00,2831.427,1,6,0.100,17125.000,0.200,10529.000,0.300,1092.000,0.500,101.000,1.000,69.000,5.000,0
"07/09/06","16:11:45","AMMA06",29143.000,"cc",28276.383,6.00,2827.638,1,6,0.100,17364.000,0.200,10464.000,0.300,1126.000,0.500,115.000,1.000,74.000,5.000,0
"07/09/06","16:11:51","AMMA06",29478.000,"cc",28281.541,6.00,2828.154,1,6,0.100,17581.000,0.200,10585.000,0.300,1125.000,0.500,111.000,1.000,76.000,5.000,0
"07/09/06","16:11:57","AMMA06",29163.000,"cc",28312.035,6.00,2831.204,1,6,0.100,17422.000,0.200,10412.000,0.300,1116.000,0.500,143.000,1.000,70.000,5.000,0
"07/09/06","16:12:03","AMMA06",29142.000,"cc",28366.156,6.00,2836.616,1,6,0.100,17382.000,0.200,10504.000,0.300,1068.000,0.500,114.000,1.000,74.000,5.000,0
"07/09/06","16:12:09","AMMA06",29091.000,"cc",28330.240,6.00,2833.024,1,6,0.100,17295.000,0.200,10491.000,0.300,1092.000,0.500,133.000,1.000,80.000,5.000,0
"07/09/06","16:12:15","AMMA06",28914.000,"cc",28346.000,6.00,2834.600,1,6,0.100,17231.000,0.200,10367.000,0.300,1127.000,0.500,115.000,1.000,74.000,5.000,0
"07/09/06","16:12:21","AMMA06",28742.000,"cc",28317.193,6.00,2831.720,1,6,0.100,17165.000,0.200,10315.000,0.300,1042.000,0.500,143.000,1.000,77.000,5.000,0
"07/09/06","16:12:27","AMMA06",28864.000,"cc",28304.678,6.00,2830.468,1,6,0.100,17332.000,0.200,10266.000,0.300,1074.000,0.500,118.000,1.000,74.000,5.000,0
"07/09/06","16:12:33","AMMA06",29101.000,"cc",28291.805,6.00,2829.181,1,6,0.100,17404.000,0.200,10409.000,0.300,1103.000,0.500,113.000,1.000,72.000,5.000,0
"07/09/06","16:12:39","AMMA06",29014.000,"cc",28308.037,6.00,2830.804,1,6,0.100,17276.000,0.200,10428.000,0.300,1114.000,0.500,124.000,1.000,72.000,5.000,0
"07/09/06","16:12:45","AMMA06",29026.000,"cc",28277.801,6.00,2827.780,1,6,0.100,17375.000,0.200,10428.000,0.300,1038.000,0.500,129.000,1.000,56.000,5.000,0
"07/09/06","16:12:51","AMMA06",28801.000,"cc",28327.459,6.00,2832.746,1,6,0.100,17166.000,0.200,10303.000,0.300,1121.000,0.500,138.000,1.000,73.000,5.000,0
"07/09/06","16:12:57","AMMA06",29062.000,"cc",28320.996,6.00,2832.100,1,6,0.100,17367.000,0.200,10425.000,0.300,1061.000,0.500,125.000,1.000,84.000,5.000,0
"07/09/06","16:13:03","AMMA06",29216.000,"cc",28332.772,6.00,2833.277,1,6,0.100,17512.000,0.200,10450.000,0.300,1049.000,0.500,132.000,1.000,73.000,5.000,0
"07/09/06","16:13:09","AMMA06",28788.000,"cc",28337.533,6.00,2833.753,1,6,0.100,17258.000,0.200,10269.000,0.300,1068.000,0.500,124.000,1.000,69.000,5.000,0
"07/09/06","16:13:15","AMMA06",29176.000,"cc",28327.723,6.00,2832.773,1,6,0.100,17578.000,0.200,10333.000,0.300,1099.000,0.500,102.000,1.000,64.000,5.000,0
"07/09/06","16:13:21","AMMA06",29209.000,"cc",28281.586,6.00,2828.159,1,6,0.100,17431.000,0.200,10498.000,0.300,1079.000,0.500,138.000,1.000,63.000,5.000,0
"07/09/06","16:13:27","AMMA06",29132.000,"cc",28298.318,6.00,2829.832,1,6,0.100,17561.000,0.200,10322.000,0.300,1087.000,0.500,108.000,1.000,54.000,5.000,0
"07/09/06","16:13:33","AMMA06",28849.000,"cc",28354.606,6.00,2835.461,1,6,0.100,17261.000,0.200,10337.000,0.300,1053.000,0.500,129.000,1.000,69.000,5.000,0
"07/09/06","16:13:39","AMMA06",29165.000,"cc",28352.240,6.00,2835.224,1,6,0.100,17410.000,0.200,10481.000,0.300,1080.000,0.500,115.000,1.000,79.000,5.000,0
"07/09/06","16:13:45","AMMA06",28696.000,"cc",28313.955,6.00,2831.396,1,6,0.100,17176.000,0.200,10283.000,0.300,1063.000,0.500,109.000,1.000,65.000,5.000,0
"07/09/06","16:13:51","AMMA06",29011.000,"cc",28278.086,6.00,2827.809,1,6,0.100,17467.000,0.200,10324.000,0.300,1016.000,0.500,130.000,1.000,73.000,5.000,1.000
"07/09/06","16:13:57","AMMA06",28989.000,"cc",28308.086,6.00,2830.809,1,6,0.100,17557.000,0.200,10213.000,0.300,1044.000,0.500,119.000,1.000,56.000,5.000,0
"07/09/06","16:14:03","AMMA06",28906.000,"cc",28314.234,6.00,2831.424,1,6,0.100,17370.000,0.200,10229.000,0.300,1119.000,0.500,125.000,1.000,63.000,5.000,0
"07/09/06","16:14:09","AMMA06",28939.000,"cc",28265.104,6.00,2826.511,1,6,0.100,17588.000,0.200,10131.000,0.300,1026.000,0.500,132.000,1.000,62.000,5.000,0
"07/09/06","16:14:15","AMMA06",29118.000,"cc",28281.557,6.00,2828.156,1,6,0.100,17729.000,0.200,10089.000,0.300,1113.000,0.500,112.000,1.000,75.000,5.000,0
"07/09/06","16:14:21","AMMA06",29211.000,"cc",28395.301,6.00,2839.530,1,6,0.100,17704.000,0.200,10172.000,0.300,1148.000,0.500,120.000,1.000,67.000,5.000,0